CPA402 VHHH-RCTP

Flight info

Callsign CPA402
Flight time 1h 10m
Altitude 37000
Route DALOL V631 ENVAR M750 EXTRA/N0484F290 M750 TONGA TONGA1A
Aircraft A35K/H-SDE2E3GHIJ3J4J5LM1ORWXY/LB1D1

Departure

Time 2026-05-04 10:40
Airport Hong Kong International Airport (VHHH)

Arrival

Time 2026-05-04 11:51
Airport Taiwan Taoyuan International Airport (RCTP)
Time Latitude Longitude Altitude Speed Heading
2026-05-04 09:53 22.31363 113.93364 38 ft 0 kts 25°
2026-05-04 10:27 22.31362 113.93363 38 ft 1 kts 25°
2026-05-04 10:27 22.31340 113.93352 37 ft 4 kts 25°
2026-05-04 10:27 22.31321 113.93342 35 ft 4 kts 22°
2026-05-04 10:28 22.31295 113.93335 37 ft 4 kts 357°
2026-05-04 10:28 22.31269 113.93340 36 ft 4 kts 340°
2026-05-04 10:28 22.31248 113.93349 35 ft 4 kts 341°
2026-05-04 10:28 22.31224 113.93357 34 ft 1 kts 341°
2026-05-04 10:29 22.31223 113.93358 34 ft 0 kts 341°
2026-05-04 10:32 22.31291 113.93265 37 ft 11 kts 267°
2026-05-04 10:33 22.31263 113.93170 38 ft 15 kts 251°
2026-05-04 10:33 22.31225 113.93052 38 ft 17 kts 250°
2026-05-04 10:33 22.31186 113.92934 38 ft 17 kts 250°
2026-05-04 10:33 22.31100 113.92852 38 ft 18 kts 205°
2026-05-04 10:34 22.30984 113.92793 38 ft 19 kts 206°
2026-05-04 10:34 22.30860 113.92728 38 ft 20 kts 211°
2026-05-04 10:34 22.30799 113.92600 38 ft 20 kts 251°
2026-05-04 10:34 22.30752 113.92452 38 ft 21 kts 251°
2026-05-04 10:35 22.30702 113.92295 38 ft 23 kts 251°
2026-05-04 10:35 22.30649 113.92130 38 ft 24 kts 251°
2026-05-04 10:35 22.30593 113.91957 38 ft 25 kts 251°
2026-05-04 10:35 22.30535 113.91776 38 ft 26 kts 250°
2026-05-04 10:36 22.30476 113.91595 38 ft 26 kts 251°
2026-05-04 10:36 22.30418 113.91414 38 ft 25 kts 251°
2026-05-04 10:36 22.30362 113.91239 38 ft 25 kts 251°
2026-05-04 10:36 22.30303 113.91056 38 ft 26 kts 251°
2026-05-04 10:37 22.30242 113.90866 38 ft 27 kts 251°
2026-05-04 10:37 22.30179 113.90671 38 ft 28 kts 251°
2026-05-04 10:37 22.30116 113.90475 38 ft 25 kts 251°
2026-05-04 10:37 22.30059 113.90298 38 ft 25 kts 251°
2026-05-04 10:39 22.29676 113.89793 36 ft 15 kts 157°
2026-05-04 10:39 22.29649 113.89888 36 ft 15 kts 74°
2026-05-04 10:39 22.29723 113.90113 36 ft 63 kts 71°
2026-05-04 10:40 22.29940 113.90793 37 ft 127 kts 71°
2026-05-04 10:40 22.30298 113.91886 52 ft 179 kts 69°
2026-05-04 10:40 22.30702 113.93142 793 ft 172 kts 71°
2026-05-04 10:40 22.31078 113.94373 1494 ft 181 kts 73°
2026-05-04 10:41 22.31475 113.95767 1916 ft 203 kts 74°
2026-05-04 10:41 22.31878 113.97238 2690 ft 204 kts 75°
2026-05-04 10:41 22.32318 113.98703 3304 ft 209 kts 73°
2026-05-04 10:41 22.32809 114.00238 3727 ft 222 kts 72°
2026-05-04 10:42 22.33338 114.01837 4210 ft 230 kts 71°
2026-05-04 10:42 22.33825 114.03509 4702 ft 237 kts 84°
2026-05-04 10:42 22.33638 114.05279 5181 ft 244 kts 110°
2026-05-04 10:42 22.32776 114.06892 5500 ft 258 kts 134°
2026-05-04 10:43 22.31328 114.08113 5793 ft 272 kts 156°
2026-05-04 10:44 22.17789 114.08840 10546 ft 309 kts 171°
2026-05-04 10:45 22.15759 114.09863 10860 ft 335 kts 152°
2026-05-04 10:45 22.13825 114.11401 11156 ft 358 kts 141°
2026-05-04 10:45 22.12212 114.13549 11462 ft 378 kts 127°
2026-05-04 10:45 22.10820 114.15949 11933 ft 387 kts 124°
2026-05-04 10:46 22.09446 114.18465 12495 ft 392 kts 124°
2026-05-04 10:46 22.08072 114.21029 13039 ft 398 kts 124°
2026-05-04 10:46 22.06686 114.23637 13586 ft 403 kts 124°
2026-05-04 10:46 22.05289 114.26274 14091 ft 407 kts 124°
2026-05-04 10:47 22.03881 114.28937 14632 ft 410 kts 123°
2026-05-04 10:47 22.02468 114.31613 15124 ft 413 kts 123°
2026-05-04 10:47 22.01040 114.34315 15618 ft 416 kts 123°
2026-05-04 10:47 21.99599 114.37040 16097 ft 420 kts 123°
2026-05-04 10:49 21.89230 114.56620 19284 ft 440 kts 123°
2026-05-04 10:49 21.87704 114.59495 19696 ft 443 kts 123°
2026-05-04 10:50 21.86174 114.62378 20118 ft 445 kts 123°
2026-05-04 10:51 21.75781 114.82079 22956 ft 464 kts 118°
2026-05-04 10:52 21.74709 114.85372 23353 ft 471 kts 105°
2026-05-04 10:52 21.74254 114.88876 23709 ft 476 kts 96°
2026-05-04 10:52 21.74213 114.92455 24019 ft 480 kts 89°
2026-05-04 10:54 21.76624 115.18087 26583 ft 503 kts 84°
2026-05-04 10:54 21.77022 115.21835 26982 ft 506 kts 84°
2026-05-04 10:56 21.79794 115.48664 29591 ft 527 kts 85°
2026-05-04 10:56 21.80195 115.52588 29944 ft 530 kts 85°
2026-05-04 10:56 21.80599 115.56538 30247 ft 533 kts 85°
2026-05-04 10:57 21.81010 115.60571 30502 ft 536 kts 85°
2026-05-04 10:57 21.81416 115.64569 30747 ft 539 kts 84°
2026-05-04 10:57 21.81824 115.68599 30967 ft 543 kts 84°
2026-05-04 10:57 21.82233 115.72646 31215 ft 546 kts 84°
2026-05-04 10:58 21.82644 115.76718 31467 ft 548 kts 84°
2026-05-04 10:58 21.83056 115.80805 31711 ft 551 kts 84°
2026-05-04 10:58 21.83468 115.84911 31947 ft 553 kts 84°
2026-05-04 10:58 21.83881 115.89036 32164 ft 556 kts 84°
2026-05-04 10:59 21.84295 115.93181 32385 ft 558 kts 84°
2026-05-04 10:59 21.84709 115.97341 32675 ft 558 kts 84°
2026-05-04 10:59 21.85122 116.01496 33007 ft 558 kts 84°
2026-05-04 10:59 21.85534 116.05656 33293 ft 559 kts 84°
2026-05-04 11:00 21.85945 116.09814 33591 ft 559 kts 84°
2026-05-04 11:01 21.88787 116.38886 35543 ft 554 kts 84°
2026-05-04 11:02 21.89187 116.43012 35777 ft 554 kts 84°
2026-05-04 11:02 21.89585 116.47134 36020 ft 553 kts 84°
2026-05-04 11:05 21.95055 117.04960 37023 ft 555 kts 84°
2026-05-04 11:06 21.95820 117.13233 37025 ft 555 kts 84°
2026-05-04 11:06 21.96577 117.21461 37033 ft 555 kts 84°
2026-05-04 11:08 21.99978 117.50395 37026 ft 554 kts 68°
2026-05-04 11:10 22.13471 117.75208 37040 ft 550 kts 55°
2026-05-04 11:12 22.29455 118.03459 37047 ft 551 kts 55°
2026-05-04 11:12 22.33542 118.10462 37048 ft 551 kts 55°
2026-05-04 11:13 22.37654 118.17458 37063 ft 551 kts 55°
2026-05-04 11:13 22.41746 118.24476 37048 ft 553 kts 56°
2026-05-04 11:14 22.45748 118.31528 37045 ft 553 kts 56°
2026-05-04 11:16 22.61813 118.59958 37042 ft 553 kts 56°
2026-05-04 11:16 22.65856 118.67049 37034 ft 553 kts 56°
2026-05-04 11:17 22.69892 118.74146 37040 ft 554 kts 56°
2026-05-04 11:19 22.86022 119.02617 37040 ft 555 kts 56°
2026-05-04 11:19 22.90053 119.09759 37042 ft 555 kts 56°
2026-05-04 11:20 22.94085 119.16911 37040 ft 555 kts 56°
2026-05-04 11:20 22.98111 119.24063 37039 ft 555 kts 56°
2026-05-04 11:22 23.12171 119.49118 36850 ft 552 kts 56°
2026-05-04 11:22 23.14164 119.52679 36105 ft 553 kts 56°
2026-05-04 11:23 23.16251 119.56175 35245 ft 553 kts 50°
2026-05-04 11:23 23.18820 119.59255 34506 ft 547 kts 37°
2026-05-04 11:24 23.37607 119.71617 30767 ft 494 kts 25°
2026-05-04 11:25 23.40538 119.73465 30347 ft 481 kts 25°
2026-05-04 11:25 23.43407 119.75273 29906 ft 473 kts 25°
2026-05-04 11:25 23.46236 119.77057 29483 ft 468 kts 25°
2026-05-04 11:26 23.51782 119.80692 28615 ft 463 kts 27°
2026-05-04 11:27 23.70258 119.93492 25760 ft 436 kts 27°
2026-05-04 11:28 23.72817 119.95259 25364 ft 433 kts 27°
2026-05-04 11:28 23.75351 119.97009 24969 ft 429 kts 27°
2026-05-04 11:28 23.77865 119.98746 24570 ft 426 kts 27°
2026-05-04 11:28 23.80360 120.00470 24175 ft 423 kts 27°
2026-05-04 11:29 23.82839 120.02184 23782 ft 420 kts 27°
2026-05-04 11:29 23.85297 120.03885 23358 ft 416 kts 27°
2026-05-04 11:29 23.87728 120.05568 22939 ft 412 kts 27°
2026-05-04 11:29 23.90139 120.07238 22548 ft 410 kts 27°
2026-05-04 11:31 24.06755 120.18762 19842 ft 397 kts 27°
2026-05-04 11:33 24.22710 120.29864 17149 ft 379 kts 27°
2026-05-04 11:33 24.24924 120.31407 16788 ft 376 kts 27°
2026-05-04 11:33 24.27129 120.32944 16428 ft 374 kts 27°
2026-05-04 11:34 24.29321 120.34473 16073 ft 373 kts 27°
2026-05-04 11:34 24.31504 120.35997 15704 ft 370 kts 27°
2026-05-04 11:34 24.33673 120.37511 15351 ft 368 kts 27°
2026-05-04 11:34 24.35827 120.39016 14995 ft 366 kts 27°
2026-05-04 11:35 24.37975 120.40516 14628 ft 364 kts 28°
2026-05-04 11:35 24.40107 120.42006 14244 ft 363 kts 28°
2026-05-04 11:35 24.41516 120.42992 13952 ft 362 kts 28°
2026-05-04 11:35 24.44340 120.44968 13397 ft 358 kts 28°
2026-05-04 11:36 24.46427 120.46429 13045 ft 354 kts 28°
2026-05-04 11:36 24.47800 120.47390 12818 ft 352 kts 28°
2026-05-04 11:36 24.49860 120.48833 12470 ft 350 kts 28°
2026-05-04 11:36 24.51908 120.50267 12124 ft 347 kts 28°
2026-05-04 11:37 24.53934 120.51689 11780 ft 345 kts 28°
2026-05-04 11:37 24.55953 120.53104 11417 ft 344 kts 28°
2026-05-04 11:37 24.57964 120.54513 11097 ft 342 kts 29°
2026-05-04 11:37 24.59954 120.55910 10854 ft 335 kts 29°
2026-05-04 11:38 24.61878 120.57265 10706 ft 322 kts 28°
2026-05-04 11:38 24.63727 120.58567 10578 ft 309 kts 28°
2026-05-04 11:38 24.65518 120.59827 10333 ft 303 kts 28°
2026-05-04 11:38 24.67268 120.61100 10017 ft 302 kts 32°
2026-05-04 11:39 24.68887 120.62570 9717 ft 306 kts 38°
2026-05-04 11:39 24.70520 120.64167 9497 ft 320 kts 38°
2026-05-04 11:40 24.80411 120.73914 7664 ft 312 kts 40°
2026-05-04 11:41 24.82006 120.75485 7429 ft 303 kts 40°
2026-05-04 11:41 24.83567 120.77024 7108 ft 299 kts 40°
2026-05-04 11:41 24.85114 120.78548 6795 ft 298 kts 40°
2026-05-04 11:41 24.86640 120.80052 6534 ft 292 kts 40°
2026-05-04 11:42 24.88137 120.81526 6274 ft 285 kts 40°
2026-05-04 11:42 24.89615 120.82984 5969 ft 285 kts 41°
2026-05-04 11:42 24.91000 120.84534 5676 ft 284 kts 53°
2026-05-04 11:42 24.91769 120.86493 5414 ft 277 kts 83°
2026-05-04 11:43 24.91815 120.88586 5143 ft 271 kts 94°
2026-05-04 11:43 24.91699 120.90655 4890 ft 269 kts 95°
2026-05-04 11:43 24.91574 120.92693 4617 ft 264 kts 94°
2026-05-04 11:43 24.91457 120.94680 4465 ft 254 kts 94°
2026-05-04 11:44 24.91358 120.96533 4306 ft 232 kts 95°
2026-05-04 11:44 24.91267 120.98300 4260 ft 230 kts 96°
2026-05-04 11:44 24.91174 121.00051 4221 ft 229 kts 95°
2026-05-04 11:44 24.91101 121.01802 4174 ft 229 kts 91°
2026-05-04 11:45 24.91529 121.03484 4116 ft 230 kts 66°
2026-05-04 11:45 24.92387 121.04964 4059 ft 228 kts 53°
2026-05-04 11:45 24.93372 121.06221 3910 ft 206 kts 51°
2026-05-04 11:45 24.94274 121.07373 3678 ft 192 kts 52°
2026-05-04 11:46 24.95114 121.08453 3411 ft 184 kts 52°
2026-05-04 11:46 24.95935 121.09494 3152 ft 175 kts 52°
2026-05-04 11:46 24.96710 121.10477 2916 ft 166 kts 53°
2026-05-04 11:46 24.97449 121.11415 2701 ft 154 kts 54°
2026-05-04 11:47 24.98108 121.12250 2508 ft 140 kts 54°
2026-05-04 11:47 24.98737 121.13049 2352 ft 137 kts 55°
2026-05-04 11:47 24.99358 121.13838 2167 ft 136 kts 54°
2026-05-04 11:47 24.99978 121.14620 1988 ft 135 kts 54°
2026-05-04 11:48 25.00592 121.15399 1815 ft 134 kts 53°
2026-05-04 11:48 25.01204 121.16173 1633 ft 134 kts 53°
2026-05-04 11:48 25.01813 121.16945 1458 ft 133 kts 52°
2026-05-04 11:48 25.02420 121.17709 1276 ft 133 kts 53°
2026-05-04 11:49 25.03024 121.18478 1101 ft 133 kts 52°
2026-05-04 11:49 25.03629 121.19245 911 ft 133 kts 51°
2026-05-04 11:49 25.04235 121.20011 716 ft 133 kts 52°
2026-05-04 11:49 25.04842 121.20782 538 ft 132 kts 51°
2026-05-04 11:50 25.05452 121.21540 357 ft 132 kts 51°
2026-05-04 11:50 25.06048 121.22307 220 ft 129 kts 53°
2026-05-04 11:50 25.06612 121.23018 102 ft 114 kts 50°
2026-05-04 11:50 25.07066 121.23596 102 ft 85 kts 49°
2026-05-04 11:51 25.07387 121.24005 101 ft 52 kts 50°
2026-05-04 11:51 25.07529 121.24147 100 ft 21 kts 32°
2026-05-04 11:51 25.07632 121.24191 104 ft 12 kts 24°
2026-05-04 11:51 25.07680 121.24215 104 ft 0 kts 23°
2026-05-04 11:52 25.07685 121.24217 104 ft 3 kts 24°
2026-05-04 11:52 25.07705 121.24227 104 ft 1 kts 23°
2026-05-04 11:52 25.07728 121.24237 104 ft 6 kts 21°
2026-05-04 11:52 25.07772 121.24225 105 ft 7 kts 314°
2026-05-04 11:53 25.07776 121.24199 105 ft 3 kts 265°
2026-05-04 11:53 25.07761 121.24167 105 ft 7 kts 234°
2026-05-04 11:53 25.07712 121.24103 106 ft 15 kts 229°
2026-05-04 11:53 25.07638 121.24007 105 ft 20 kts 229°
2026-05-04 11:55 25.07660 121.23714 106 ft 11 kts 45°
2026-05-04 11:55 25.07719 121.23786 106 ft 13 kts 49°
2026-05-04 11:56 25.07780 121.23863 107 ft 13 kts 49°
2026-05-04 11:56 25.07821 121.23912 107 ft 6 kts 37°
2026-05-04 11:56 25.07856 121.23911 107 ft 5 kts 340°
2026-05-04 11:56 25.07883 121.23890 107 ft 5 kts 319°
2026-05-04 11:57 25.07907 121.23867 105 ft 4 kts 319°
2026-05-04 11:57 25.07923 121.23852 107 ft 2 kts 319°
2026-05-04 11:57 25.07926 121.23849 107 ft 1 kts 319°
2026-05-04 11:57 25.07929 121.23846 107 ft 1 kts 319°